| time (UTC) | temp C | wind direction | speed KPH | gust KPH | rain 1hr cm | rain 24hr cm | rain mn cm | humidity % | barometer mb |
| 20260505073038 | 17 | 0 | 0.0 | 6.4 | 0.00 | 0.00 | 0.00 | 63 | 1007.1 |
| 20260505071554 | 17 | 0 | 0.0 | 12.9 | 0.00 | 0.00 | 0.00 | 63 | 1006.9 |
| 20260505070047 | 18 | 0 | 0.0 | 8.0 | 0.00 | 0.00 | 0.00 | 63 | 1007.0 |
| 20260505064542 | 18 | 0 | 1.6 | 11.3 | 0.00 | 0.00 | 0.00 | 63 | 1006.8 |
| 20260505063058 | 18 | 317 | 1.6 | 11.3 | 0.00 | 0.00 | 0.00 | 62 | 1007.0 |
| 20260505061610 | 18 | 0 | 1.6 | 16.1 | 0.00 | 0.00 | 0.00 | 62 | 1007.0 |
| 20260505060055 | 18 | 5 | 3.2 | 12.9 | 0.00 | 0.00 | 0.00 | 61 | 1006.6 |
| 20260505054548 | 18 | 5 | 3.2 | 12.9 | 0.00 | 0.00 | 0.00 | 61 | 1006.5 |
| 20260505053045 | 19 | 0 | 1.6 | 16.1 | 0.00 | 0.00 | 0.00 | 60 | 1006.3 |
| 20260505051606 | 19 | 5 | 3.2 | 8.0 | 0.00 | 0.00 | 0.00 | 60 | 1006.2 |
| 20260505041537 | 20 | 0 | 1.6 | 9.7 | 0.00 | 0.00 | 0.00 | 61 | 1007.0 |
| 20260505040035 | 20 | 0 | 3.2 | 9.7 | 0.00 | 0.00 | 0.00 | 61 | 1007.1 |
| 20260505034539 | 20 | 22 | 1.6 | 14.5 | 0.00 | 0.00 | 0.00 | 60 | 1007.1 |
| 20260505033037 | 20 | 351 | 3.2 | 19.3 | 0.00 | 0.00 | 0.00 | 60 | 1007.1 |
| 20260505031534 | 20 | 0 | 1.6 | 12.9 | 0.00 | 0.00 | 0.00 | 60 | 1006.9 |
| 20260505030034 | 20 | 346 | 1.6 | 12.9 | 0.00 | 0.00 | 0.00 | 60 | 1006.8 |
| 20260505024548 | 20 | 34 | 1.6 | 12.9 | 0.00 | 0.00 | 0.00 | 60 | 1006.5 |
| 20260505023041 | 20 | 306 | 3.2 | 12.9 | 0.00 | 0.00 | 0.00 | 60 | 1006.3 |
| 20260505021537 | 20 | 360 | 0.0 | 8.0 | 0.00 | 0.00 | 0.00 | 60 | 1006.2 |
| 20260505020035 | 20 | 350 | 0.0 | 3.2 | 0.00 | 0.00 | 0.00 | 59 | 1005.9 |
| 20260505014533 | 21 | 0 | 1.6 | 8.0 | 0.00 | 0.00 | 0.00 | 59 | 1005.8 |
| 20260505013042 | 21 | 5 | 0.0 | 12.9 | 0.00 | 0.00 | 0.00 | 59 | 1005.7 |
| 20260505011541 | 21 | 333 | 1.6 | 8.0 | 0.00 | 0.00 | 0.00 | 57 | 1005.6 |
| 20260505010038 | 21 | 0 | 1.6 | 8.0 | 0.00 | 0.00 | 0.00 | 56 | 1005.6 |
| 20260505004544 | 21 | 355 | 1.6 | 14.5 | 0.00 | 0.00 | 0.00 | 55 | 1005.6 |
| 20260505003043 | 22 | 22 | 1.6 | 16.1 | 0.00 | 0.00 | 0.00 | 54 | 1005.5 |
| 20260505001544 | 22 | 0 | 0.0 | 20.9 | 0.00 | 0.00 | 0.00 | 53 | 1005.8 |
| 20260505000046 | 22 | 340 | 1.6 | 14.5 | 0.00 | 0.00 | 0.00 | 51 | 1005.9 |
| 20260504234539 | 22 | 0 | 0.0 | 16.1 | 0.00 | 0.00 | 0.00 | 50 | 1006.0 |
| 20260504233100 | 23 | 0 | 1.6 | 14.5 | 0.00 | 0.00 | 0.00 | 48 | 1006.4 |
| 20260504231546 | 23 | 67 | 4.8 | 16.1 | 0.00 | 0.00 | 0.00 | 47 | 1006.2 |
| 20260504230053 | 23 | 76 | 3.2 | 19.3 | 0.00 | 0.00 | 0.00 | 47 | 1006.2 |
| 20260504224542 | 23 | 101 | 1.6 | 20.9 | 0.00 | 0.00 | 0.00 | 49 | 1006.5 |
| 20260504223047 | 23 | 41 | 1.6 | 11.3 | 0.00 | 0.00 | 0.00 | 56 | 1006.4 |
| 20260504221544 | 23 | 14 | 1.6 | 9.7 | 0.00 | 0.00 | 0.00 | 56 | 1006.4 |
| 20260504220045 | 22 | 0 | 1.6 | 6.4 | 0.00 | 0.00 | 0.00 | 56 | 1006.4 |
| 20260504214548 | 23 | 78 | 1.6 | 6.4 | 0.00 | 0.00 | 0.00 | 51 | 1006.9 |
| 20260504213041 | 23 | 87 | 0.0 | 6.4 | 0.00 | 0.00 | 0.00 | 51 | 1007.0 |
| 20260504211540 | 23 | 87 | 1.6 | 6.4 | 0.00 | 0.00 | 0.00 | 51 | 1007.2 |
| 20260504210043 | 23 | 92 | 1.6 | 12.9 | 0.00 | 0.00 | 0.00 | 52 | 1007.4 |
| 20260504204548 | 23 | 26 | 3.2 | 11.3 | 0.00 | 0.00 | 0.00 | 53 | 1007.5 |
| 20260504203058 | 22 | 89 | 0.0 | 11.3 | 0.00 | 0.00 | 0.00 | 55 | 1007.7 |
| 20260504201541 | 22 | 106 | 4.8 | 16.1 | 0.00 | 0.00 | 0.00 | 54 | 1007.9 |
| 20260504200041 | 22 | 109 | 3.2 | 9.7 | 0.00 | 0.00 | 0.00 | 53 | 1008.0 |
| 20260504194537 | 22 | 100 | 3.2 | 11.3 | 0.00 | 0.00 | 0.00 | 59 | 1008.2 |
| 20260504193041 | 21 | 52 | 4.8 | 14.5 | 0.00 | 0.00 | 0.00 | 59 | 1008.7 |
| 20260504191543 | 21 | 0 | 3.2 | 9.7 | 0.00 | 0.00 | 0.00 | 61 | 1008.7 |
| 20260504190105 | 20 | 90 | 0.0 | 9.7 | 0.00 | 0.00 | 0.00 | 64 | 1009.0 |
| 20260504184548 | 20 | 0 | 1.6 | 9.7 | 0.00 | 0.00 | 0.00 | 63 | 1009.2 |
| 20260504183037 | 20 | 84 | 3.2 | 12.9 | 0.00 | 0.00 | 0.00 | 61 | 1009.1 |
| 20260504181544 | 20 | 89 | 3.2 | 14.5 | 0.00 | 0.00 | 0.00 | 61 | 1008.8 |
| 20260504180044 | 20 | 88 | 1.6 | 14.5 | 0.00 | 0.00 | 0.00 | 59 | 1008.6 |
| 20260504174540 | 21 | 64 | 4.8 | 16.1 | 0.00 | 0.00 | 0.00 | 60 | 1008.4 |
| 20260504173044 | 20 | 0 | 3.2 | 14.5 | 0.00 | 0.00 | 0.00 | 61 | 1008.4 |
| 20260504171543 | 19 | 0 | 1.6 | 12.9 | 0.00 | 0.00 | 0.00 | 65 | 1008.5 |
| 20260504081540 | 11 | 352 | 1.6 | 8.0 | 0.00 | 0.00 | 0.00 | 64 | 1010.7 |